Location: Centerville
(32.8776°N, 96.6203°W)
Time: 11:19:24
(UTC+00:00)

Cosmos 2237 - Pass Details

Date: 24 October 2021
Orbit: 845 x 856 km, 70.8° (Epoch: 08 December)

Event Time Altitude Azimuth Distance (km) Brightness Sun altitude
Rises 02:05:18 0° 240° (WSW) 3,406 8.1 -30.3°
Reaches altitude 10° 02:08:30 10° 259° (WSW) 2,476 7.4 -31.0°
Maximum altitude 02:12:24 19° 302° (WNW) 1,941 6.7 -31.8°
Drops below altitude 10° 02:16:19 10° 346° (NNW) 2,489 6.8 -32.6°
Sets 02:19:34 0° 4° (N) 3,430 7.4 -33.3°
